Tabellarische Ansicht des 19.2.2010


Die einzelnen Werte des Tages

Uhrzeit Temperatur Luftdruck Luftfeuchte Wind Hi-Wind Taupunkt THW Index Wind Chill Heat Index Solar- strahlung Regen

00:00

2.2 C

994.6 hpa

89 %

9.7 km/h aus 118

17.7 km/h aus ESE

0.5 C

-0.7 C

-0.6 C

2.1 C

0 W/m

0.00 mm

00:05

2.2 C

994.6 hpa

89 %

9.7 km/h aus 113

16.1 km/h aus ESE

0.5 C

-0.7 C

-0.6 C

2.1 C

0 W/m

0.00 mm

00:10

2.2 C

994.6 hpa

88 %

9.7 km/h aus 117

16.1 km/h aus SE

0.4 C

-0.6 C

-0.6 C

2.2 C

0 W/m

0.00 mm

00:15

2.2 C

994.3 hpa

88 %

8.0 km/h aus 117

14.5 km/h aus ESE

0.4 C

-0.2 C

-0.2 C

2.1 C

0 W/m

0.00 mm

00:20

2.2 C

994.3 hpa

88 %

9.7 km/h aus 117

16.1 km/h aus E

0.4 C

-0.7 C

-0.6 C

2.1 C

0 W/m

0.00 mm

00:25

2.2 C

994.3 hpa

88 %

8.0 km/h aus 118

16.1 km/h aus ESE

0.4 C

-0.2 C

-0.2 C

2.1 C

0 W/m

0.00 mm

00:30

2.2 C

994.2 hpa

88 %

8.0 km/h aus 116

16.1 km/h aus ESE

0.4 C

-0.2 C

-0.2 C

2.1 C

0 W/m

0.00 mm

00:35

2.2 C

994.2 hpa

88 %

8.0 km/h aus 117

16.1 km/h aus ESE

0.4 C

-0.2 C

-0.2 C

2.1 C

0 W/m

0.00 mm

00:40

2.2 C

994.2 hpa

88 %

6.4 km/h aus 117

14.5 km/h aus ESE

0.4 C

0.3 C

0.3 C

2.1 C

0 W/m

0.00 mm

00:45

2.2 C

994.1 hpa

88 %

6.4 km/h aus 116

14.5 km/h aus E

0.4 C

0.3 C

0.3 C

2.1 C

0 W/m

0.00 mm

00:50

2.2 C

994.1 hpa

88 %

6.4 km/h aus 117

11.3 km/h aus ESE

0.4 C

0.3 C

0.3 C

2.1 C

0 W/m

0.00 mm

00:55

2.2 C

994.1 hpa

88 %

6.4 km/h aus 116

11.3 km/h aus ESE

0.4 C

0.3 C

0.4 C

2.2 C

0 W/m

0.00 mm

01:00

2.2 C

993.8 hpa

88 %

6.4 km/h aus 117

12.9 km/h aus ESE

0.4 C

0.3 C

0.4 C

2.2 C

0 W/m

0.00 mm

01:05

2.3 C

993.8 hpa

88 %

6.4 km/h aus 116

12.9 km/h aus ESE

0.5 C

0.4 C

0.4 C

2.2 C

0 W/m

0.00 mm

01:10

2.3 C

993.8 hpa

88 %

6.4 km/h aus 116

11.3 km/h aus ESE

0.5 C

0.4 C

0.5 C

2.3 C

0 W/m

0.00 mm

01:15

2.4 C

993.7 hpa

88 %

6.4 km/h aus 116

9.7 km/h aus ESE

0.7 C

0.6 C

0.7 C

2.4 C

0 W/m

0.00 mm

01:20

2.5 C

993.7 hpa

88 %

4.8 km/h aus 117

9.7 km/h aus E

0.7 C

1.3 C

1.3 C

2.4 C

0 W/m

0.00 mm

01:25

2.6 C

993.7 hpa

88 %

8.0 km/h aus 117

14.5 km/h aus ESE

0.8 C

0.2 C

0.3 C

2.5 C

0 W/m

0.00 mm

01:30

2.6 C

993.5 hpa

88 %

8.0 km/h aus 118

14.5 km/h aus ESE

0.8 C

0.3 C

0.3 C

2.6 C

0 W/m

0.00 mm

01:35

2.7 C

993.5 hpa

88 %

9.7 km/h aus 117

17.7 km/h aus ESE

0.9 C

-0.1 C

-0.1 C

2.6 C

0 W/m

0.00 mm

01:40

2.7 C

993.5 hpa

87 %

9.7 km/h aus 117

16.1 km/h aus ESE

0.8 C

-0.1 C

0.1 C

2.6 C

0 W/m

0.00 mm

01:45

2.8 C

993.3 hpa

87 %

6.4 km/h aus 116

14.5 km/h aus SE

0.8 C

0.9 C

1.1 C

2.7 C

0 W/m

0.00 mm

01:50

2.8 C

993.3 hpa

87 %

8.0 km/h aus 117

14.5 km/h aus ESE

0.9 C

0.5 C

0.6 C

2.7 C

0 W/m

0.00 mm

01:55

2.9 C

993.3 hpa

87 %

8.0 km/h aus 117

14.5 km/h aus ESE

0.9 C

0.6 C

0.7 C

2.8 C

0 W/m

0.00 mm

02:00

2.9 C

993.2 hpa

87 %

9.7 km/h aus 117

16.1 km/h aus ESE

0.9 C

0.1 C

0.2 C

2.8 C

0 W/m

0.00 mm

02:05

2.9 C

993.2 hpa

87 %

11.3 km/h aus 116

17.7 km/h aus E

1.0 C

-0.2 C

-0.1 C

2.8 C

0 W/m

0.00 mm

02:10

3.0 C

993.2 hpa

92 %

9.7 km/h aus 117

17.7 km/h aus SE

1.8 C

0.3 C

0.4 C

2.9 C

0 W/m

0.00 mm

02:15

3.1 C

993.2 hpa

87 %

9.7 km/h aus 117

19.3 km/h aus ESE

1.1 C

0.3 C

0.4 C

2.9 C

0 W/m

0.00 mm

02:20

3.1 C

993.2 hpa

87 %

9.7 km/h aus 117

19.3 km/h aus SSE

1.2 C

0.4 C

0.5 C

3.0 C

0 W/m

0.00 mm

02:25

3.1 C

993.2 hpa

87 %

6.4 km/h aus 117

14.5 km/h aus ESE

1.2 C

1.3 C

1.4 C

3.0 C

0 W/m

0.00 mm

02:30

3.2 C

993.2 hpa

86 %

6.4 km/h aus 117

11.3 km/h aus ESE

1.0 C

1.4 C

1.5 C

3.1 C

0 W/m

0.00 mm

02:35

3.1 C

993.2 hpa

86 %

6.4 km/h aus 118

14.5 km/h aus SE

1.0 C

1.3 C

1.4 C

3.0 C

0 W/m

0.00 mm

02:40

3.1 C

993.2 hpa

86 %

4.8 km/h aus 116

9.7 km/h aus ESE

1.0 C

1.9 C

2.1 C

3.0 C

0 W/m

0.00 mm

02:45

3.1 C

992.8 hpa

86 %

8.0 km/h aus 116

17.7 km/h aus SSE

0.9 C

0.7 C

0.8 C

2.9 C

0 W/m

0.00 mm

02:50

3.1 C

992.8 hpa

86 %

8.0 km/h aus 117

17.7 km/h aus SE

0.9 C

0.7 C

0.8 C

2.9 C

0 W/m

0.00 mm

02:55

3.1 C

992.8 hpa

87 %

12.9 km/h aus 117

25.7 km/h aus ESE

1.2 C

-0.3 C

-0.2 C

3.0 C

0 W/m

0.00 mm

03:00

3.1 C

992.7 hpa

87 %

11.3 km/h aus 116

19.3 km/h aus ESE

1.2 C

0.0 C

0.1 C

3.0 C

0 W/m

0.00 mm

03:05

3.1 C

992.7 hpa

87 %

9.7 km/h aus 117

16.1 km/h aus SE

1.2 C

0.4 C

0.5 C

3.0 C

0 W/m

0.00 mm

03:10

3.1 C

992.7 hpa

87 %

9.7 km/h aus 116

17.7 km/h aus SSE

1.2 C

0.4 C

0.5 C

3.0 C

0 W/m

0.00 mm

03:15

3.2 C

992.6 hpa

87 %

8.0 km/h aus 116

17.7 km/h aus SSE

1.2 C

0.9 C

1.0 C

3.1 C

0 W/m

0.00 mm

03:20

3.2 C

992.6 hpa

87 %

9.7 km/h aus 117

17.7 km/h aus SE

1.2 C

0.4 C

0.6 C

3.1 C

0 W/m

0.00 mm

03:25

3.2 C

992.6 hpa

87 %

11.3 km/h aus 117

17.7 km/h aus SE

1.2 C

0.1 C

0.2 C

3.1 C

0 W/m

0.00 mm

03:30

3.2 C

992.3 hpa

87 %

9.7 km/h aus 116

17.7 km/h aus SE

1.2 C

0.4 C

0.6 C

3.1 C

0 W/m

0.00 mm

03:35

3.2 C

992.3 hpa

87 %

9.7 km/h aus 117

19.3 km/h aus SE

1.2 C

0.4 C

0.6 C

3.1 C

0 W/m

0.00 mm

03:40

3.1 C

992.3 hpa

87 %

9.7 km/h aus 118

17.7 km/h aus ESE

1.2 C

0.4 C

0.5 C

3.0 C

0 W/m

0.00 mm

03:45

3.1 C

992.2 hpa

87 %

8.0 km/h aus 117

14.5 km/h aus SE

1.1 C

0.7 C

0.8 C

2.9 C

0 W/m

0.00 mm

03:50

3.1 C

992.2 hpa

87 %

6.4 km/h aus 117

17.7 km/h aus SE

1.1 C

1.2 C

1.3 C

2.9 C

0 W/m

0.00 mm

03:55

3.0 C

992.2 hpa

87 %

9.7 km/h aus 116

20.9 km/h aus SE

1.0 C

0.3 C

0.4 C

2.9 C

0 W/m

0.00 mm

04:00

3.1 C

992.2 hpa

87 %

9.7 km/h aus 117

19.3 km/h aus SE

1.1 C

0.3 C

0.4 C

2.9 C

0 W/m

0.00 mm

04:05

3.1 C

992.2 hpa

87 %

8.0 km/h aus 117

14.5 km/h aus SSE

1.1 C

0.7 C

0.8 C

2.9 C

0 W/m

0.00 mm

04:10

3.1 C

992.2 hpa

87 %

6.4 km/h aus 117

14.5 km/h aus SE

1.1 C

1.2 C

1.3 C

2.9 C

0 W/m

0.00 mm

04:15

3.1 C

992.1 hpa

87 %

8.0 km/h aus 96

16.1 km/h aus SE

1.1 C

0.7 C

0.8 C

2.9 C

0 W/m

0.00 mm

04:20

3.1 C

992.1 hpa

87 %

11.3 km/h aus 109

22.5 km/h aus SE

1.1 C

-0.1 C

0.1 C

2.9 C

0 W/m

0.00 mm

04:25

3.1 C

992.1 hpa

87 %

9.7 km/h aus 117

17.7 km/h aus SE

1.1 C

0.3 C

0.4 C

2.9 C

0 W/m

0.00 mm

04:30

3.1 C

991.8 hpa

87 %

6.4 km/h aus 117

11.3 km/h aus ESE

1.1 C

1.2 C

1.3 C

2.9 C

0 W/m

0.00 mm

04:35

3.1 C

991.8 hpa

87 %

8.0 km/h aus 115

16.1 km/h aus ESE

1.1 C

0.7 C

0.8 C

2.9 C

0 W/m

0.00 mm

04:40

3.1 C

991.8 hpa

87 %

8.0 km/h aus 117

14.5 km/h aus ESE

1.1 C

0.7 C

0.8 C

2.9 C

0 W/m

0.00 mm

04:45

3.1 C

991.7 hpa

87 %

6.4 km/h aus 118

14.5 km/h aus ESE

1.1 C

1.2 C

1.3 C

2.9 C

0 W/m

0.00 mm

04:50

3.1 C

991.7 hpa

87 %

6.4 km/h aus 116

11.3 km/h aus ESE

1.1 C

1.2 C

1.3 C

2.9 C

0 W/m

0.00 mm

04:55

3.0 C

991.7 hpa

88 %

6.4 km/h aus 117

11.3 km/h aus ESE

1.2 C

1.2 C

1.3 C

2.9 C

0 W/m

0.00 mm

05:00

3.0 C

991.6 hpa

88 %

6.4 km/h aus 117

11.3 km/h aus E

1.2 C

1.2 C

1.3 C

2.9 C

0 W/m

0.00 mm

05:05

3.0 C

991.6 hpa

88 %

8.0 km/h aus 117

16.1 km/h aus ESE

1.2 C

0.7 C

0.8 C

2.9 C

0 W/m

0.00 mm

05:10

2.9 C

991.6 hpa

88 %

4.8 km/h aus 115

9.7 km/h aus E

1.2 C

1.8 C

1.8 C

2.9 C

0 W/m

0.00 mm

05:15

2.9 C

991.4 hpa

88 %

4.8 km/h aus 116

11.3 km/h aus ESE

1.2 C

1.8 C

1.8 C

2.9 C

0 W/m

0.00 mm

05:20

2.9 C

991.4 hpa

88 %

3.2 km/h aus 116

6.4 km/h aus ESE

1.2 C

2.6 C

2.7 C

2.9 C

0 W/m

0.00 mm

05:25

2.9 C

991.4 hpa

88 %

3.2 km/h aus 117

6.4 km/h aus ESE

1.2 C

2.6 C

2.7 C

2.9 C

0 W/m

0.00 mm

05:30

2.9 C

991.3 hpa

88 %

3.2 km/h aus 117

6.4 km/h aus ESE

1.2 C

2.6 C

2.7 C

2.9 C

0 W/m

0.00 mm

05:35

2.9 C

991.3 hpa

88 %

3.2 km/h aus 117

6.4 km/h aus E

1.2 C

2.6 C

2.7 C

2.9 C

0 W/m

0.00 mm

05:40

2.9 C

991.3 hpa

88 %

6.4 km/h aus 117

11.3 km/h aus ESE

1.1 C

1.1 C

1.2 C

2.8 C

0 W/m

0.00 mm

05:45

2.9 C

991.1 hpa

88 %

4.8 km/h aus 118

11.3 km/h aus ESE

1.1 C

1.7 C

1.8 C

2.8 C

0 W/m

0.00 mm

05:50

2.8 C

991.1 hpa

88 %

6.4 km/h aus 116

11.3 km/h aus ESE

1.0 C

1.1 C

1.1 C

2.8 C

0 W/m

0.00 mm

05:55

2.8 C

991.1 hpa

88 %

6.4 km/h aus 117

16.1 km/h aus ESE

1.0 C

1.1 C

1.1 C

2.8 C

0 W/m

0.00 mm

06:00

2.8 C

991.1 hpa

88 %

6.4 km/h aus 117

11.3 km/h aus ESE

1.0 C

1.1 C

1.1 C

2.8 C

0 W/m

0.00 mm

06:05

2.8 C

991.1 hpa

89 %

8.0 km/h aus 116

16.1 km/h aus SE

1.2 C

0.6 C

0.6 C

2.8 C

0 W/m

0.00 mm

06:10

2.8 C

991.1 hpa

89 %

8.0 km/h aus 117

14.5 km/h aus ESE

1.1 C

0.4 C

0.5 C

2.7 C

0 W/m

0.00 mm

06:15

2.8 C

990.8 hpa

89 %

9.7 km/h aus 117

14.5 km/h aus SE

1.1 C

0.1 C

0.1 C

2.7 C

0 W/m

0.00 mm

06:20

2.8 C

990.8 hpa

89 %

8.0 km/h aus 117

17.7 km/h aus ESE

1.1 C

0.4 C

0.5 C

2.7 C

0 W/m

0.00 mm

06:25

2.8 C

990.8 hpa

89 %

8.0 km/h aus 117

14.5 km/h aus ESE

1.1 C

0.4 C

0.5 C

2.7 C

0 W/m

0.00 mm

06:30

2.8 C

990.7 hpa

89 %

8.0 km/h aus 117

16.1 km/h aus SSE

1.1 C

0.4 C

0.5 C

2.7 C

0 W/m

0.00 mm

06:35

2.7 C

990.7 hpa

89 %

8.0 km/h aus 117

16.1 km/h aus E

1.1 C

0.4 C

0.4 C

2.7 C

0 W/m

0.00 mm

06:40

2.7 C

990.7 hpa

89 %

6.4 km/h aus 116

11.3 km/h aus ESE

1.1 C

0.9 C

0.9 C

2.7 C

0 W/m

0.00 mm

06:45

2.7 C

990.4 hpa

89 %

6.4 km/h aus 117

14.5 km/h aus ESE

1.1 C

0.9 C

0.9 C

2.7 C

0 W/m

0.00 mm

06:50

2.7 C

990.4 hpa

89 %

8.0 km/h aus 118

14.5 km/h aus ESE

1.0 C

0.3 C

0.4 C

2.6 C

0 W/m

0.00 mm

06:55

2.7 C

990.4 hpa

89 %

6.4 km/h aus 117

9.7 km/h aus ESE

1.0 C

0.8 C

0.9 C

2.6 C

0 W/m

0.00 mm

07:00

2.6 C

990.3 hpa

89 %

4.8 km/h aus 117

8.0 km/h aus ESE

1.0 C

1.4 C

1.4 C

2.6 C

0 W/m

0.00 mm

07:05

2.6 C

990.3 hpa

89 %

3.2 km/h aus 117

9.7 km/h aus SE

1.0 C

2.2 C

2.3 C

2.6 C

0 W/m

0.00 mm

07:10

2.6 C

990.3 hpa

89 %

3.2 km/h aus 116

8.0 km/h aus ESE

1.0 C

2.2 C

2.3 C

2.6 C

0 W/m

0.00 mm

07:15

2.6 C

990.4 hpa

89 %

3.2 km/h aus 117

6.4 km/h aus ESE

1.0 C

2.2 C

2.3 C

2.6 C

0 W/m

0.00 mm

07:20

2.6 C

990.4 hpa

89 %

3.2 km/h aus 116

9.7 km/h aus E

1.0 C

2.2 C

2.3 C

2.6 C

0 W/m

0.00 mm

07:25

2.6 C

990.4 hpa

90 %

3.2 km/h aus 117

9.7 km/h aus E

1.1 C

2.2 C

2.3 C

2.6 C

0 W/m

0.00 mm

07:30

2.6 C

990.3 hpa

90 %

3.2 km/h aus 117

4.8 km/h aus E

1.1 C

2.2 C

2.3 C

2.6 C

0 W/m

0.00 mm

07:35

2.6 C

990.3 hpa

90 %

4.8 km/h aus 116

8.0 km/h aus E

1.1 C

1.4 C

1.4 C

2.6 C

0 W/m

0.00 mm

07:40

2.6 C

990.3 hpa

90 %

3.2 km/h aus 115

4.8 km/h aus ENE

1.1 C

2.2 C

2.3 C

2.6 C

0 W/m

0.00 mm

07:45

2.6 C

990.1 hpa

90 %

3.2 km/h aus 117

6.4 km/h aus ENE

1.1 C

2.2 C

2.3 C

2.6 C

0 W/m

0.00 mm

07:50

2.6 C

990.1 hpa

90 %

4.8 km/h aus 117

6.4 km/h aus ENE

1.1 C

1.3 C

1.4 C

2.5 C

0 W/m

0.00 mm

07:55

2.6 C

990.1 hpa

90 %

4.8 km/h aus 118

9.7 km/h aus E

1.1 C

1.3 C

1.4 C

2.5 C

0 W/m

0.00 mm

08:00

2.6 C

989.9 hpa

90 %

4.8 km/h aus 117

16.1 km/h aus ESE

1.1 C

1.4 C

1.4 C

2.6 C

0 W/m

0.00 mm

08:05

2.6 C

989.9 hpa

90 %

6.4 km/h aus 117

11.3 km/h aus ESE

1.1 C

0.8 C

0.8 C

2.6 C

0 W/m

0.00 mm

08:10

2.7 C

989.9 hpa

90 %

8.0 km/h aus 116

14.5 km/h aus ESE

1.2 C

0.3 C

0.4 C

2.6 C

0 W/m

0.00 mm

08:15

2.7 C

989.7 hpa

91 %

8.0 km/h aus 117

14.5 km/h aus ESE

1.4 C

0.4 C

0.4 C

2.7 C

0 W/m

0.00 mm

08:20

2.8 C

989.7 hpa

91 %

9.7 km/h aus 116

16.1 km/h aus ESE

1.5 C

0.1 C

0.1 C

2.7 C

0 W/m

0.00 mm

08:25

2.8 C

989.7 hpa

91 %

9.7 km/h aus 116

17.7 km/h aus ESE

1.5 C

0.1 C

0.2 C

2.8 C

0 W/m

0.00 mm

08:30

2.9 C

989.7 hpa

91 %

9.7 km/h aus 116

17.7 km/h aus ESE

1.6 C

0.2 C

0.3 C

2.9 C

0 W/m

0.00 mm

08:35

3.1 C

989.7 hpa

91 %

9.7 km/h aus 117

17.7 km/h aus ESE

1.7 C

0.4 C

0.4 C

3.0 C

0 W/m

0.00 mm

08:40

3.2 C

989.7 hpa

91 %

11.3 km/h aus 116

17.7 km/h aus ESE

1.9 C

0.2 C

0.3 C

3.2 C

0 W/m

0.00 mm

08:45

3.3 C

989.7 hpa

90 %

12.9 km/h aus 116

20.9 km/h aus SE

1.8 C

0.1 C

0.1 C

3.3 C

0 W/m

0.00 mm

08:50

3.5 C

989.7 hpa

90 %

12.9 km/h aus 117

20.9 km/h aus SSE

2.0 C

0.2 C

0.3 C

3.4 C

0 W/m

0.00 mm

08:55

3.6 C

989.7 hpa

90 %

14.5 km/h aus 117

27.4 km/h aus SE

2.1 C

0.0 C

0.1 C

3.5 C

0 W/m

0.00 mm

09:00

3.7 C

989.6 hpa

90 %

14.5 km/h aus 118

24.1 km/h aus SSE

2.2 C

0.2 C

0.2 C

3.6 C

0 W/m

0.00 mm

09:05

3.7 C

989.6 hpa

89 %

16.1 km/h aus 116

24.1 km/h aus SE

2.1 C

-0.1 C

0.0 C

3.7 C

0 W/m

0.00 mm

09:10

3.8 C

989.6 hpa

89 %

14.5 km/h aus 117

25.7 km/h aus SSE

2.1 C

0.3 C

0.3 C

3.7 C

0 W/m

0.00 mm

09:15

3.8 C

989.8 hpa

89 %

14.5 km/h aus 117

25.7 km/h aus ESE

2.2 C

0.3 C

0.4 C

3.8 C

0 W/m

0.00 mm

09:20

3.9 C

989.8 hpa

88 %

12.9 km/h aus 117

22.5 km/h aus ESE

2.1 C

0.7 C

0.8 C

3.8 C

0 W/m

0.00 mm

09:25

3.9 C

989.8 hpa

88 %

9.7 km/h aus 117

20.9 km/h aus SSE

2.1 C

1.4 C

1.5 C

3.9 C

0 W/m

0.00 mm

09:30

4.0 C

989.8 hpa

88 %

9.7 km/h aus 117

19.3 km/h aus SSE

2.2 C

1.5 C

1.6 C

3.9 C

0 W/m

0.00 mm

09:35

4.1 C

989.8 hpa

87 %

9.7 km/h aus 116

19.3 km/h aus SE

2.1 C

1.5 C

1.6 C

3.9 C

0 W/m

0.00 mm

09:40

4.2 C

989.8 hpa

87 %

9.7 km/h aus 117

17.7 km/h aus SE

2.2 C

1.7 C

1.8 C

4.1 C

0 W/m

0.00 mm

09:45

4.2 C

990.0 hpa

87 %

9.7 km/h aus 117

17.7 km/h aus SSE

2.2 C

1.7 C

1.8 C

4.1 C

0 W/m

0.00 mm

09:50

4.3 C

990.0 hpa

87 %

9.7 km/h aus 117

17.7 km/h aus SE

2.4 C

1.8 C

1.9 C

4.2 C

0 W/m

0.00 mm

09:55

4.4 C

990.0 hpa

86 %

8.0 km/h aus 117

14.5 km/h aus SSE

2.3 C

2.3 C

2.4 C

4.3 C

0 W/m

0.00 mm

10:00

4.4 C

990.0 hpa

86 %

8.0 km/h aus 117

11.3 km/h aus SE

2.3 C

2.4 C

2.5 C

4.3 C

0 W/m

0.00 mm

10:05

4.6 C

990.0 hpa

86 %

3.2 km/h aus 118

9.7 km/h aus SSE

2.4 C

4.3 C

4.4 C

4.4 C

0 W/m

0.00 mm

10:10

4.7 C

990.0 hpa

86 %

6.4 km/h aus 117

9.7 km/h aus SE

2.5 C

3.1 C

3.2 C

4.6 C

0 W/m

0.00 mm

10:15

4.8 C

990.0 hpa

84 %

4.8 km/h aus 117

11.3 km/h aus SE

2.4 C

3.9 C

4.0 C

4.7 C

0 W/m

0.00 mm

10:20

5.0 C

990.0 hpa

84 %

4.8 km/h aus 117

9.7 km/h aus SE

2.5 C

4.1 C

4.2 C

4.9 C

0 W/m

0.00 mm

10:25

5.1 C

990.0 hpa

83 %

3.2 km/h aus 116

11.3 km/h aus SE

2.4 C

4.9 C

5.0 C

4.9 C

0 W/m

0.00 mm

10:30

5.1 C

989.8 hpa

83 %

8.0 km/h aus 117

14.5 km/h aus SE

2.4 C

3.1 C

3.2 C

4.9 C

0 W/m

0.00 mm

10:35

5.0 C

989.8 hpa

82 %

6.4 km/h aus 117

11.3 km/h aus SE

2.2 C

3.4 C

3.6 C

4.8 C

0 W/m

0.00 mm

10:40

5.1 C

989.8 hpa

82 %

8.0 km/h aus 116

14.5 km/h aus ESE

2.2 C

3.0 C

3.2 C

4.9 C

0 W/m

0.00 mm

10:45

5.1 C

989.7 hpa

82 %

4.8 km/h aus 117

9.7 km/h aus SE

2.2 C

4.1 C

4.2 C

4.9 C

0 W/m

0.00 mm

10:50

5.2 C

989.7 hpa

82 %

4.8 km/h aus 116

9.7 km/h aus SE

2.3 C

4.2 C

4.3 C

5.0 C

0 W/m

0.00 mm

10:55

5.3 C

989.7 hpa

81 %

11.3 km/h aus 117

19.3 km/h aus SSE

2.3 C

2.6 C

2.7 C

5.1 C

0 W/m

0.00 mm

11:00

5.3 C

989.6 hpa

81 %

12.9 km/h aus 116

20.9 km/h aus SSE

2.3 C

2.3 C

2.4 C

5.1 C

0 W/m

0.00 mm

11:05

5.2 C

989.6 hpa

81 %

12.9 km/h aus 116

19.3 km/h aus SSE

2.2 C

2.2 C

2.4 C

5.1 C

0 W/m

0.00 mm

11:10

5.3 C

989.6 hpa

81 %

14.5 km/h aus 117

20.9 km/h aus SSE

2.3 C

2.1 C

2.2 C

5.2 C

0 W/m

0.00 mm

11:15

5.4 C

989.7 hpa

80 %

17.7 km/h aus 117

22.5 km/h aus SSE

2.3 C

1.7 C

1.8 C

5.3 C

0 W/m

0.00 mm

11:20

5.6 C

989.7 hpa

80 %

16.1 km/h aus 117

20.9 km/h aus SSE

2.4 C

2.1 C

2.2 C

5.4 C

0 W/m

0.00 mm

11:25

5.7 C

989.7 hpa

80 %

12.9 km/h aus 117

17.7 km/h aus SSE

2.5 C

2.8 C

3.0 C

5.6 C

0 W/m

0.00 mm

11:30

5.8 C

989.9 hpa

79 %

9.7 km/h aus 116

17.7 km/h aus SSE

2.4 C

3.5 C

3.7 C

5.6 C

0 W/m

0.00 mm

11:35

6.1 C

989.9 hpa

79 %

8.0 km/h aus 117

14.5 km/h aus SSE

2.7 C

4.2 C

4.4 C

5.9 C

0 W/m

0.00 mm

11:40

6.2 C

989.9 hpa

78 %

12.9 km/h aus 117

19.3 km/h aus SE

2.6 C

3.3 C

3.5 C

6.0 C

0 W/m

0.00 mm

11:45

6.2 C

989.7 hpa

78 %

14.5 km/h aus 116

19.3 km/h aus S

2.6 C

3.0 C

3.2 C

6.0 C

0 W/m

0.00 mm

11:50

6.2 C

989.7 hpa

77 %

12.9 km/h aus 116

19.3 km/h aus SSE

2.4 C

3.3 C

3.5 C

5.9 C

0 W/m

0.00 mm

11:55

6.1 C

989.7 hpa

77 %

12.9 km/h aus 117

17.7 km/h aus SSE

2.4 C

3.2 C

3.4 C

5.9 C

0 W/m

0.00 mm

12:00

6.2 C

989.6 hpa

77 %

11.3 km/h aus 117

19.3 km/h aus SSE

2.4 C

3.6 C

3.8 C

5.9 C

0 W/m

0.00 mm

12:05

6.4 C

989.6 hpa

77 %

11.3 km/h aus 116

17.7 km/h aus SSE

2.7 C

4.0 C

4.2 C

6.3 C

0 W/m

0.00 mm

12:10

6.8 C

989.6 hpa

75 %

12.9 km/h aus 118

17.7 km/h aus SSE

2.7 C

4.0 C

4.2 C

6.6 C

0 W/m

0.00 mm

12:15

7.2 C

989.4 hpa

73 %

12.9 km/h aus 116

20.9 km/h aus S

2.6 C

4.5 C

4.7 C

6.9 C

0 W/m

0.00 mm

12:20

7.2 C

989.4 hpa

72 %

8.0 km/h aus 117

20.9 km/h aus S

2.5 C

5.4 C

5.7 C

6.9 C

0 W/m

0.00 mm

12:25

7.4 C

989.4 hpa

71 %

17.7 km/h aus 117

29.0 km/h aus SSE

2.5 C

3.9 C

4.2 C

7.2 C

0 W/m

0.00 mm

12:30

7.4 C

989.1 hpa

71 %

19.3 km/h aus 116

27.4 km/h aus S

2.5 C

3.6 C

3.9 C

7.2 C

0 W/m

0.00 mm

12:35

7.5 C

989.1 hpa

70 %

16.1 km/h aus 115

24.1 km/h aus SSE

2.4 C

4.2 C

4.5 C

7.2 C

0 W/m

0.00 mm

12:40

7.6 C

989.1 hpa

70 %

16.1 km/h aus 117

25.7 km/h aus S

2.4 C

4.3 C

4.6 C

7.3 C

0 W/m

0.00 mm

12:45

7.5 C

989.0 hpa

69 %

12.9 km/h aus 117

25.7 km/h aus S

2.2 C

4.8 C

5.1 C

7.2 C

0 W/m

0.00 mm

12:50

7.8 C

989.0 hpa

69 %

12.9 km/h aus 117

20.9 km/h aus SSE

2.5 C

5.2 C

5.5 C

7.6 C

0 W/m

0.00 mm

12:55

8.2 C

989.0 hpa

66 %

11.3 km/h aus 117

22.5 km/h aus SSW

2.2 C

5.8 C

6.2 C

7.8 C

0 W/m

0.00 mm

13:00

8.3 C

988.8 hpa

67 %

17.7 km/h aus 116

24.1 km/h aus S

2.6 C

4.8 C

5.2 C

8.0 C

0 W/m

0.00 mm

13:05

8.5 C

988.8 hpa

65 %

11.3 km/h aus 116

20.9 km/h aus S

2.3 C

6.3 C

6.7 C

8.1 C

0 W/m

0.00 mm

13:10

8.6 C

988.8 hpa

65 %

12.9 km/h aus 117

20.9 km/h aus S

2.4 C

6.0 C

6.4 C

8.2 C

0 W/m

0.00 mm

13:15

8.6 C

988.5 hpa

64 %

12.9 km/h aus 116

20.9 km/h aus S

2.2 C

6.0 C

6.4 C

8.2 C

0 W/m

0.00 mm

13:20

8.4 C

988.5 hpa

65 %

16.1 km/h aus 116

27.4 km/h aus S

2.2 C

5.2 C

5.6 C

8.1 C

0 W/m

0.00 mm

13:25

8.3 C

988.5 hpa

65 %

17.7 km/h aus 117

27.4 km/h aus S

2.1 C

4.7 C

5.1 C

7.9 C

0 W/m

0.00 mm

13:30

8.2 C

988.4 hpa

65 %

16.1 km/h aus 115

25.7 km/h aus S

2.0 C

4.8 C

5.2 C

7.8 C

0 W/m

0.00 mm

13:35

8.2 C

988.4 hpa

65 %

16.1 km/h aus 117

22.5 km/h aus SSE

2.0 C

4.8 C

5.2 C

7.8 C

0 W/m

0.00 mm

13:40

8.3 C

988.4 hpa

65 %

16.1 km/h aus 117

29.0 km/h aus SSE

2.1 C

5.0 C

5.4 C

7.9 C

0 W/m

0.00 mm

13:45

8.4 C

988.2 hpa

64 %

19.3 km/h aus 116

27.4 km/h aus SSE

2.0 C

4.6 C

5.0 C

8.0 C

0 W/m

0.00 mm

13:50

8.3 C

988.2 hpa

64 %

19.3 km/h aus 117

29.0 km/h aus S

1.9 C

4.5 C

4.9 C

7.9 C

0 W/m

0.00 mm

13:55

8.3 C

988.2 hpa

63 %

19.3 km/h aus 116

25.7 km/h aus S

1.6 C

4.5 C

4.9 C

7.9 C

0 W/m

0.00 mm

14:00

8.3 C

988.0 hpa

64 %

17.7 km/h aus 116

24.1 km/h aus S

1.9 C

4.8 C

5.2 C

7.9 C

0 W/m

0.00 mm

14:05

8.2 C

988.0 hpa

64 %

17.7 km/h aus 116

27.4 km/h aus S

1.8 C

4.6 C

5.0 C

7.8 C

0 W/m

0.00 mm

14:10

8.1 C

988.0 hpa

64 %

17.7 km/h aus 117

25.7 km/h aus S

1.7 C

4.5 C

4.9 C

7.7 C

0 W/m

0.00 mm

14:15

8.4 C

988.0 hpa

63 %

8.0 km/h aus 118

16.1 km/h aus SSW

1.7 C

6.7 C

7.1 C

8.0 C

0 W/m

0.00 mm

14:20

8.3 C

988.0 hpa

62 %

12.9 km/h aus 116

22.5 km/h aus S

1.5 C

5.6 C

6.1 C

7.9 C

0 W/m

0.00 mm

14:25

8.3 C

988.0 hpa

62 %

16.1 km/h aus 115

24.1 km/h aus SW

1.4 C

4.9 C

5.4 C

7.8 C

0 W/m

0.00 mm

14:30

8.2 C

988.0 hpa

63 %

14.5 km/h aus 117

24.1 km/h aus S

1.5 C

5.2 C

5.6 C

7.8 C

0 W/m

0.00 mm

14:35

7.9 C

988.0 hpa

62 %

14.5 km/h aus 117

22.5 km/h aus S

1.1 C

4.8 C

5.3 C

7.5 C

0 W/m

0.00 mm

14:40

7.9 C

988.0 hpa

62 %

9.7 km/h aus 117

20.9 km/h aus S

1.1 C

5.8 C

6.3 C

7.5 C

0 W/m

0.00 mm

14:45

7.9 C

988.0 hpa

62 %

8.0 km/h aus 116

16.1 km/h aus SW

1.1 C

6.2 C

6.6 C

7.5 C

0 W/m

0.00 mm

14:50

7.9 C

988.0 hpa

62 %

14.5 km/h aus 116

24.1 km/h aus S

1.1 C

4.8 C

5.3 C

7.5 C

0 W/m

0.00 mm

14:55

8.1 C

988.0 hpa

63 %

11.3 km/h aus 117

20.9 km/h aus SSW

1.4 C

5.7 C

6.1 C

7.7 C

0 W/m

0.00 mm

15:00

8.1 C

987.9 hpa

61 %

9.7 km/h aus 117

19.3 km/h aus SSW

1.0 C

5.9 C

6.4 C

7.6 C

0 W/m

0.00 mm

15:05

7.9 C

987.9 hpa

61 %

9.7 km/h aus 116

17.7 km/h aus SSW

0.9 C

5.8 C

6.3 C

7.5 C

0 W/m

0.00 mm

15:10

7.8 C

987.9 hpa

61 %

8.0 km/h aus 116

19.3 km/h aus SSW

0.8 C

6.0 C

6.4 C

7.4 C

0 W/m

0.00 mm

15:15

7.8 C

987.9 hpa

62 %

6.4 km/h aus 116

17.7 km/h aus SSW

0.9 C

6.3 C

6.8 C

7.3 C

0 W/m

0.00 mm

15:20

7.7 C

987.9 hpa

62 %

11.3 km/h aus 118

19.3 km/h aus SSW

0.9 C

5.3 C

5.7 C

7.3 C

0 W/m

0.00 mm

15:25

7.8 C

987.9 hpa

62 %

14.5 km/h aus 117

24.1 km/h aus S

1.0 C

4.7 C

5.2 C

7.4 C

0 W/m

0.00 mm

15:30

7.8 C

987.9 hpa

63 %

11.3 km/h aus 116

22.5 km/h aus S

1.2 C

5.4 C

5.8 C

7.4 C

0 W/m

0.00 mm

15:35

7.7 C

987.9 hpa

64 %

11.3 km/h aus 116

20.9 km/h aus SSE

1.3 C

5.3 C

5.7 C

7.3 C

0 W/m

0.00 mm

15:40

7.8 C

987.9 hpa

64 %

11.3 km/h aus 117

17.7 km/h aus S

1.4 C

5.4 C

5.8 C

7.4 C

0 W/m

0.00 mm

15:45

7.7 C

987.8 hpa

65 %

9.7 km/h aus 116

16.1 km/h aus S

1.5 C

5.6 C

5.9 C

7.3 C

0 W/m

0.00 mm

15:50

7.4 C

987.8 hpa

65 %

9.7 km/h aus 117

17.7 km/h aus SSE

1.2 C

5.2 C

5.6 C

7.0 C

0 W/m

0.00 mm

15:55

7.2 C

987.8 hpa

64 %

14.5 km/h aus 116

22.5 km/h aus S

0.9 C

4.1 C

4.4 C

6.8 C

0 W/m

0.00 mm

16:00

7.1 C

988.0 hpa

64 %

12.9 km/h aus 117

20.9 km/h aus S

0.7 C

4.2 C

4.6 C

6.7 C

0 W/m

0.00 mm

16:05

7.0 C

988.0 hpa

64 %

11.3 km/h aus 117

19.3 km/h aus S

0.6 C

4.4 C

4.8 C

6.6 C

0 W/m

0.00 mm

16:10

7.1 C

988.0 hpa

64 %

11.3 km/h aus 117

19.3 km/h aus S

0.7 C

4.5 C

4.9 C

6.7 C

0 W/m

0.00 mm

16:15

7.1 C

988.0 hpa

64 %

11.3 km/h aus 117

25.7 km/h aus S

0.7 C

4.5 C

4.9 C

6.7 C

0 W/m

0.00 mm

16:20

7.2 C

988.0 hpa

62 %

17.7 km/h aus 117

27.4 km/h aus S

0.4 C

3.4 C

3.9 C

6.8 C

0 W/m

0.00 mm

16:25

6.8 C

988.0 hpa

68 %

24.1 km/h aus 118

41.8 km/h aus WSW

1.3 C

2.2 C

2.6 C

6.4 C

0 W/m

0.00 mm

16:30

6.1 C

988.5 hpa

72 %

22.5 km/h aus 117

38.6 km/h aus WSW

1.4 C

1.7 C

1.9 C

5.8 C

0 W/m

0.00 mm

16:35

5.7 C

988.5 hpa

73 %

16.1 km/h aus 115

25.7 km/h aus WSW

1.2 C

2.1 C

2.3 C

5.4 C

0 W/m

0.00 mm

16:40

5.4 C

988.5 hpa

74 %

14.5 km/h aus 117

25.7 km/h aus SSW

1.2 C

2.2 C

2.4 C

5.2 C

0 W/m

0.00 mm

16:45

5.3 C

988.5 hpa

75 %

11.3 km/h aus 117

24.1 km/h aus SW

1.2 C

2.5 C

2.7 C

5.1 C

0 W/m

0.00 mm

16:50

5.1 C

988.5 hpa

76 %

14.5 km/h aus 117

30.6 km/h aus SSW

1.2 C

1.7 C

1.9 C

4.9 C

0 W/m

0.00 mm

16:55

5.1 C

988.5 hpa

76 %

12.9 km/h aus 116

24.1 km/h aus WSW

1.2 C

1.9 C

2.2 C

4.8 C

0 W/m

0.00 mm

17:00

4.9 C

988.6 hpa

77 %

8.0 km/h aus 117

19.3 km/h aus SW

1.2 C

2.8 C

3.1 C

4.7 C

0 W/m

0.00 mm

17:05

4.9 C

988.6 hpa

77 %

11.3 km/h aus 117

20.9 km/h aus W

1.2 C

2.1 C

2.3 C

4.7 C

0 W/m

0.00 mm

17:10

4.8 C

988.6 hpa

78 %

12.9 km/h aus 117

22.5 km/h aus WSW

1.3 C

1.7 C

1.9 C

4.6 C

0 W/m

0.00 mm

17:15

4.7 C

988.8 hpa

79 %

14.5 km/h aus 117

25.7 km/h aus SSW

1.4 C

1.3 C

1.5 C

4.6 C

0 W/m

0.00 mm

17:20

4.6 C

988.8 hpa

80 %

12.9 km/h aus 116

19.3 km/h aus WSW

1.5 C

1.5 C

1.7 C

4.4 C

0 W/m

0.00 mm

17:25

4.5 C

988.8 hpa

80 %

11.3 km/h aus 117

17.7 km/h aus SW

1.3 C

1.6 C

1.8 C

4.3 C

0 W/m

0.00 mm

17:30

4.4 C

988.9 hpa

80 %

8.0 km/h aus 117

16.1 km/h aus SW

1.3 C

2.3 C

2.5 C

4.3 C

0 W/m

0.00 mm

17:35

4.4 C

988.9 hpa

80 %

6.4 km/h aus 116

11.3 km/h aus WSW

1.2 C

2.7 C

2.9 C

4.2 C

0 W/m

0.00 mm

17:40

4.4 C

988.9 hpa

79 %

8.0 km/h aus 116

16.1 km/h aus SW

1.1 C

2.3 C

2.4 C

4.2 C

0 W/m

0.00 mm

17:45

4.4 C

989.0 hpa

79 %

6.4 km/h aus 116

17.7 km/h aus SW

1.1 C

2.7 C

2.9 C

4.2 C

0 W/m

0.00 mm

17:50

4.3 C

989.0 hpa

78 %

4.8 km/h aus 116

22.5 km/h aus SW

0.8 C

3.2 C

3.4 C

4.1 C

0 W/m

0.00 mm

17:55

4.3 C

989.0 hpa

77 %

11.3 km/h aus 116

20.9 km/h aus WSW

0.6 C

1.3 C

1.6 C

4.1 C

0 W/m

0.00 mm

18:00

4.3 C

989.1 hpa

76 %

12.9 km/h aus 117

27.4 km/h aus SSW

0.4 C

1.0 C

1.2 C

4.1 C

0 W/m

0.00 mm

18:05

4.2 C

989.1 hpa

76 %

8.0 km/h aus 117

19.3 km/h aus SSW

0.4 C

2.0 C

2.2 C

4.0 C

0 W/m

0.00 mm

18:10

4.2 C

989.1 hpa

75 %

11.3 km/h aus 117

20.9 km/h aus SSW

0.1 C

1.1 C

1.4 C

3.9 C

0 W/m

0.00 mm

18:15

4.2 C

989.1 hpa

74 %

12.9 km/h aus 116

25.7 km/h aus WSW

-0.1 C

0.8 C

1.1 C

3.9 C

0 W/m

0.00 mm

18:20

4.1 C

989.1 hpa

74 %

12.9 km/h aus 117

22.5 km/h aus SW

-0.1 C

0.8 C

1.1 C

3.8 C

0 W/m

0.00 mm

18:25

4.1 C

989.1 hpa

73 %

12.9 km/h aus 116

19.3 km/h aus SW

-0.4 C

0.7 C

0.9 C

3.8 C

0 W/m

0.00 mm

18:30

4.0 C

989.4 hpa

73 %

14.5 km/h aus 118

27.4 km/h aus WSW

-0.4 C

0.3 C

0.6 C

3.7 C

0 W/m

0.00 mm

18:35

4.0 C

989.4 hpa

72 %

17.7 km/h aus 116

25.7 km/h aus WSW

-0.6 C

-0.2 C

0.1 C

3.7 C

0 W/m

0.00 mm

18:40

3.9 C

989.4 hpa

72 %

14.5 km/h aus 117

30.6 km/h aus WSW

-0.6 C

0.3 C

0.6 C

3.7 C

0 W/m

0.00 mm

18:45

3.9 C

989.5 hpa

73 %

14.5 km/h aus 117

24.1 km/h aus SSW

-0.5 C

0.2 C

0.5 C

3.6 C

0 W/m

0.00 mm

18:50

3.8 C

989.5 hpa

73 %

14.5 km/h aus 117

25.7 km/h aus SW

-0.6 C

0.1 C

0.3 C

3.5 C

0 W/m

0.00 mm

18:55

3.7 C

989.5 hpa

73 %

12.9 km/h aus 117

22.5 km/h aus WSW

-0.7 C

0.2 C

0.5 C

3.4 C

0 W/m

0.00 mm

19:00

3.7 C

989.6 hpa

74 %

12.9 km/h aus 117

20.9 km/h aus SW

-0.5 C

0.3 C

0.5 C

3.4 C

0 W/m

0.00 mm

19:05

3.6 C

989.6 hpa

74 %

17.7 km/h aus 116

30.6 km/h aus SW

-0.6 C

-0.6 C

-0.3 C

3.4 C

0 W/m

0.00 mm

19:10

3.6 C

989.6 hpa

74 %

16.1 km/h aus 115

30.6 km/h aus SSW

-0.6 C

-0.4 C

-0.2 C

3.3 C

0 W/m

0.00 mm

19:15

3.5 C

989.6 hpa

74 %

16.1 km/h aus 117

22.5 km/h aus SSW

-0.7 C

-0.5 C

-0.3 C

3.3 C

0 W/m

0.00 mm

19:20

3.4 C

989.6 hpa

75 %

12.9 km/h aus 117

20.9 km/h aus SW

-0.6 C

0.0 C

0.2 C

3.2 C

0 W/m

0.00 mm

19:25

3.4 C

989.6 hpa

75 %

19.3 km/h aus 116

27.4 km/h aus S

-0.6 C

-1.1 C

-0.8 C

3.2 C

0 W/m

0.00 mm

19:30

3.3 C

989.6 hpa

75 %

16.1 km/h aus 116

29.0 km/h aus S

-0.7 C

-0.7 C

-0.4 C

3.1 C

0 W/m

0.00 mm

19:35

3.3 C

989.6 hpa

76 %

14.5 km/h aus 118

20.9 km/h aus SSW

-0.6 C

-0.5 C

-0.3 C

3.1 C

0 W/m

0.00 mm

19:40

3.2 C

989.6 hpa

76 %

12.9 km/h aus 117

22.5 km/h aus SSW

-0.6 C

-0.3 C

-0.1 C

3.0 C

0 W/m

0.00 mm

19:45

3.2 C

989.7 hpa

77 %

16.1 km/h aus 117

27.4 km/h aus SW

-0.5 C

-0.9 C

-0.7 C

2.9 C

0 W/m

0.00 mm

19:50

3.2 C

989.7 hpa

76 %

14.5 km/h aus 115

27.4 km/h aus S

-0.6 C

-0.6 C

-0.3 C

3.0 C

0 W/m

0.00 mm

19:55

3.3 C

989.7 hpa

77 %

14.5 km/h aus 117

25.7 km/h aus WSW

-0.4 C

-0.5 C

-0.3 C

3.1 C

0 W/m

0.00 mm

20:00

3.3 C

989.8 hpa

77 %

16.1 km/h aus 116

27.4 km/h aus SW

-0.3 C

-0.7 C

-0.4 C

3.1 C

0 W/m

0.00 mm

20:05

3.4 C

989.8 hpa

77 %

16.1 km/h aus 117

27.4 km/h aus SSW

-0.3 C

-0.6 C

-0.4 C

3.2 C

0 W/m

0.00 mm

20:10

3.4 C

989.8 hpa

77 %

12.9 km/h aus 117

20.9 km/h aus SSW

-0.2 C

0.0 C

0.2 C

3.2 C

0 W/m

0.00 mm

20:15

3.4 C

989.9 hpa

77 %

14.5 km/h aus 117

27.4 km/h aus WSW

-0.3 C

-0.3 C

-0.1 C

3.2 C

0 W/m

0.00 mm

20:20

3.4 C

989.9 hpa

78 %

14.5 km/h aus 116

24.1 km/h aus SSW

-0.1 C

-0.3 C

-0.1 C

3.2 C

0 W/m

0.00 mm

20:25

3.4 C

989.9 hpa

78 %

20.9 km/h aus 116

35.4 km/h aus SW

0.0 C

-1.2 C

-1.0 C

3.3 C

0 W/m

0.00 mm

20:30

3.4 C

990.0 hpa

78 %

17.7 km/h aus 117

24.1 km/h aus SSW

0.0 C

-0.7 C

-0.6 C

3.3 C

0 W/m

0.00 mm

20:35

3.4 C

990.0 hpa

78 %

19.3 km/h aus 116

32.2 km/h aus SSW

0.0 C

-0.9 C

-0.8 C

3.3 C

0 W/m

0.00 mm

20:40

3.4 C

990.0 hpa

79 %

16.1 km/h aus 118

27.4 km/h aus SSW

0.1 C

-0.6 C

-0.4 C

3.2 C

0 W/m

0.00 mm

20:45

3.3 C

990.1 hpa

79 %

11.3 km/h aus 117

19.3 km/h aus SSW

0.0 C

0.2 C

0.4 C

3.2 C

0 W/m

0.00 mm

20:50

3.3 C

990.1 hpa

79 %

16.1 km/h aus 117

25.7 km/h aus SSW

0.0 C

-0.6 C

-0.4 C

3.2 C

0 W/m

0.00 mm

20:55

3.3 C

990.1 hpa

80 %

16.1 km/h aus 116

25.7 km/h aus SSW

0.2 C

-0.7 C

-0.6 C

3.1 C

0 W/m

0.00 mm

21:00

3.3 C

990.3 hpa

80 %

14.5 km/h aus 117

25.7 km/h aus SW

0.2 C

-0.4 C

-0.3 C

3.1 C

0 W/m

0.00 mm

21:05

3.2 C

990.3 hpa

80 %

12.9 km/h aus 117

25.7 km/h aus SSW

0.1 C

-0.2 C

-0.1 C

3.1 C

0 W/m

0.00 mm

21:10

3.2 C

990.3 hpa

80 %

14.5 km/h aus 117

24.1 km/h aus SW

0.0 C

-0.6 C

-0.4 C

3.0 C

0 W/m

0.00 mm

21:15

3.2 C

990.6 hpa

81 %

17.7 km/h aus 117

29.0 km/h aus SW

0.2 C

-1.1 C

-0.9 C

3.0 C

0 W/m

0.00 mm

21:20

3.2 C

990.6 hpa

81 %

17.7 km/h aus 117

29.0 km/h aus SW

0.2 C

-1.1 C

-0.9 C

3.0 C

0 W/m

0.00 mm

21:25

3.1 C

990.6 hpa

81 %

14.5 km/h aus 117

25.7 km/h aus SW

0.2 C

-0.7 C

-0.5 C

2.9 C

0 W/m

0.00 mm

21:30

3.1 C

990.7 hpa

81 %

14.5 km/h aus 117

25.7 km/h aus SSW

0.1 C

-0.7 C

-0.6 C

2.9 C

0 W/m

0.00 mm

21:35

3.1 C

990.7 hpa

81 %

17.7 km/h aus 117

29.0 km/h aus WSW

0.1 C

-1.2 C

-1.1 C

2.9 C

0 W/m

0.00 mm

21:40

3.0 C

990.7 hpa

81 %

12.9 km/h aus 117

25.7 km/h aus SSW

0.1 C

-0.5 C

-0.3 C

2.8 C

0 W/m

0.00 mm

21:45

3.0 C

990.9 hpa

81 %

17.7 km/h aus 117

27.4 km/h aus SSW

0.1 C

-1.3 C

-1.1 C

2.8 C

0 W/m

0.00 mm

21:50

2.9 C

990.9 hpa

82 %

16.1 km/h aus 117

27.4 km/h aus SW

0.2 C

-1.1 C

-0.9 C

2.8 C

0 W/m

0.00 mm

21:55

2.9 C

990.9 hpa

82 %

12.9 km/h aus 117

22.5 km/h aus SW

0.2 C

-0.6 C

-0.4 C

2.8 C

0 W/m

0.00 mm

22:00

2.9 C

991.1 hpa

81 %

14.5 km/h aus 116

24.1 km/h aus SSW

-0.1 C

-0.9 C

-0.7 C

2.7 C

0 W/m

0.00 mm

22:05

2.9 C

991.1 hpa

82 %

14.5 km/h aus 117

27.4 km/h aus SSW

0.1 C

-0.9 C

-0.7 C

2.7 C

0 W/m

0.00 mm

22:10

2.8 C

991.1 hpa

82 %

16.1 km/h aus 115

33.8 km/h aus SSW

0.1 C

-1.3 C

-1.1 C

2.7 C

0 W/m

0.00 mm

22:15

2.8 C

991.2 hpa

82 %

14.5 km/h aus 116

24.1 km/h aus WSW

0.0 C

-1.1 C

-0.9 C

2.6 C

0 W/m

0.00 mm

22:20

2.7 C

991.2 hpa

82 %

12.9 km/h aus 116

24.1 km/h aus SW

0.0 C

-0.8 C

-0.7 C

2.6 C

0 W/m

0.00 mm

22:25

2.7 C

991.2 hpa

82 %

14.5 km/h aus 117

29.0 km/h aus SSW

0.0 C

-1.1 C

-0.9 C

2.6 C

0 W/m

0.00 mm

22:30

2.7 C

991.5 hpa

82 %

16.1 km/h aus 116

29.0 km/h aus SSW

-0.1 C

-1.4 C

-1.3 C

2.5 C

0 W/m

0.00 mm

22:35

2.7 C

991.5 hpa

82 %

16.1 km/h aus 117

27.4 km/h aus SW

-0.1 C

-1.4 C

-1.3 C

2.5 C

0 W/m

0.00 mm

22:40

2.6 C

991.5 hpa

82 %

17.7 km/h aus 117

27.4 km/h aus SW

-0.2 C

-1.8 C

-1.6 C

2.4 C

0 W/m

0.00 mm

22:45

2.6 C

991.6 hpa

82 %

14.5 km/h aus 115

25.7 km/h aus SW

-0.2 C

-1.3 C

-1.2 C

2.4 C

0 W/m

0.00 mm

22:50

2.4 C

991.6 hpa

82 %

14.5 km/h aus 118

27.4 km/h aus WSW

-0.3 C

-1.4 C

-1.3 C

2.3 C

0 W/m

0.00 mm

22:55

2.4 C

991.6 hpa

82 %

16.1 km/h aus 117

27.4 km/h aus WSW

-0.3 C

-1.7 C

-1.6 C

2.3 C

0 W/m

0.00 mm

23:00

2.4 C

991.6 hpa

82 %

17.7 km/h aus 117

29.0 km/h aus SW

-0.3 C

-2.0 C

-1.8 C

2.3 C

0 W/m

0.00 mm

23:05

2.4 C

991.6 hpa

82 %

11.3 km/h aus 117

19.3 km/h aus SW

-0.3 C

-0.8 C

-0.7 C

2.3 C

0 W/m

0.00 mm

23:10

2.4 C

991.6 hpa

82 %

12.9 km/h aus 117

27.4 km/h aus SW

-0.3 C

-1.2 C

-1.0 C

2.3 C

0 W/m

0.00 mm

23:15

2.4 C

991.7 hpa

82 %

12.9 km/h aus 117

25.7 km/h aus SW

-0.3 C

-1.2 C

-1.0 C

2.3 C

0 W/m

0.00 mm

23:20

2.4 C

991.7 hpa

82 %

11.3 km/h aus 117

27.4 km/h aus SSW

-0.4 C

-0.9 C

-0.7 C

2.2 C

0 W/m

0.00 mm

23:25

2.4 C

991.7 hpa

82 %

14.5 km/h aus 117

25.7 km/h aus SSW

-0.4 C

-1.6 C

-1.4 C

2.2 C

0 W/m

0.00 mm

23:30

2.4 C

991.9 hpa

82 %

12.9 km/h aus 117

22.5 km/h aus SW

-0.4 C

-1.2 C

-1.1 C

2.2 C

0 W/m

0.00 mm

23:35

2.3 C

991.9 hpa

82 %

11.3 km/h aus 116

22.5 km/h aus WSW

-0.4 C

-0.9 C

-0.8 C

2.2 C

0 W/m

0.00 mm

23:40

2.3 C

991.9 hpa

82 %

17.7 km/h aus 117

33.8 km/h aus WSW

-0.4 C

-2.1 C

-1.9 C

2.2 C

0 W/m

0.00 mm

23:45

2.3 C

992.0 hpa

82 %

12.9 km/h aus 117

22.5 km/h aus SW

-0.4 C

-1.3 C

-1.1 C

2.2 C

0 W/m

0.00 mm

23:50

2.3 C

992.0 hpa

82 %

16.1 km/h aus 117

30.6 km/h aus WSW

-0.4 C

-1.9 C

-1.7 C

2.2 C

0 W/m

0.00 mm

23:55

2.3 C

992.0 hpa

82 %

19.3 km/h aus 118

33.8 km/h aus SW

-0.4 C

-2.3 C

-2.2 C

2.2 C

0 W/m

0.00 mm